Terminal Aerodrome Forecast
Issued by NWS Brownsville, TX

Home | Current Version | Previous Version | Text Only | Print | Product List | Glossary On
Versions: 1 2 3 4 5 6 7 8 9 10 11 12 13 14 15 16 17 18 19 20
637
FTUS44 KBRO 080520
TAFHRL
TAF
KHRL 080520Z 0806/0906 VRB04KT P6SM BKN250
     FM081800 03018G24KT P6SM BKN250
     FM090000 04005KT P6SM SKC=

USA.gov is the U.S. government's official web portal to all federal, state and local government web resources and services.